User: anonymous   Login
Location: Fuglau
(48.6333°N, 15.5500°E)
Time: 05:38:48
(UTC+00:00)
Language:

STARLINK 1040 - Orbit

View from above orbital plane
View from above orbital plane
View from above satellite
View from above satellite

Ground track
Ground track

The orbit data is extracted from the following two-line orbital elements,

1 44745U 19074AJ  20152.47928705 +.00056426 +12352-4 +17631-3 0  9998
2 44745 052.9838 235.4368 0002421 059.9949 300.1316 15.91978412031775
Epoch (UTC): 31 May 2020 11:30:10
Eccentricity: 0.0002421
inclination: 52.9838°
perigee height: 295 km
apogee height: 298 km
right ascension of ascending node: 235.4368°
argument of perigee: 59.9949°
revolutions per day: 15.91978412
mean anomaly at epoch: 300.1316°
orbit number at epoch: 3177

The dashed part of the orbit path shows where the satellite is in the earth's shadow,  

DLR